| time (UTC) | temp C | wind direction | speed KPH | gust KPH | rain 1hr cm | rain 24hr cm | rain mn cm | humidity % | barometer mb |
| 20260905224605 | 27 | 2 | 0.0 | 4.8 | 0.00 | 0.13 | 0.13 | 81 | 1010.4 |
| 20260905224104 | 27 | 2 | 1.6 | 4.8 | 0.03 | 0.13 | 0.13 | 81 | 1010.4 |
| 20260905223604 | 27 | 326 | 1.6 | 4.8 | 0.03 | 0.13 | 0.13 | 81 | 1010.4 |
| 20260905223104 | 26 | 326 | 1.6 | 4.8 | 0.08 | 0.13 | 0.13 | 81 | 1010.4 |
| 20260905221605 | 26 | 325 | 0.0 | 11.3 | 0.13 | 0.13 | 0.13 | 82 | 1010.7 |
| 20260905221105 | 26 | 301 | 0.0 | 11.3 | 0.13 | 0.13 | 0.13 | 82 | 1010.6 |
| 20260905220604 | 26 | 285 | 6.4 | 11.3 | 0.13 | 0.13 | 0.13 | 82 | 1010.7 |
| 20260905220104 | 26 | 292 | 3.2 | 8.0 | 0.13 | 0.13 | 0.13 | 82 | 1010.5 |
| 20260905214604 | 27 | 268 | 1.6 | 14.5 | 0.13 | 0.13 | 0.13 | 79 | 1010.4 |
| 20260905214105 | 28 | 287 | 6.4 | 14.5 | 0.10 | 0.10 | 0.10 | 76 | 1010.7 |
| 20260905213604 | 30 | 29 | 1.6 | 22.5 | 0.10 | 0.10 | 0.10 | 75 | 1010.8 |
| 20260905213105 | 31 | 357 | 8.0 | 22.5 | 0.05 | 0.05 | 0.05 | 73 | 1011.1 |
| 20260905211104 | 32 | 326 | 1.6 | 4.8 | 0.00 | 0.00 | 0.00 | 62 | 1010.3 |
| 20260905210605 | 32 | 356 | 1.6 | 4.8 | 0.00 | 0.00 | 0.00 | 62 | 1010.3 |
| 20260905204604 | 33 | 291 | 4.8 | 16.1 | 0.00 | 0.00 | 0.00 | 56 | 1010.4 |
| 20260905204104 | 34 | 292 | 8.0 | 16.1 | 0.00 | 0.00 | 0.00 | 55 | 1010.6 |
| 20260905203104 | 35 | 288 | 4.8 | 12.9 | 0.00 | 0.00 | 0.00 | 54 | 1010.6 |
| 20260905201604 | 33 | 358 | 1.6 | 11.3 | 0.00 | 0.00 | 0.00 | 59 | 1010.9 |
| 20260905200605 | 33 | 286 | 4.8 | 14.5 | 0.00 | 0.00 | 0.00 | 57 | 1010.9 |
| 20260905200104 | 33 | 285 | 8.0 | 14.5 | 0.00 | 0.00 | 0.00 | 56 | 1010.8 |
| 20260905194604 | 32 | 295 | 3.2 | 12.9 | 0.00 | 0.00 | 0.00 | 59 | 1010.9 |
| 20260905194104 | 32 | 25 | 4.8 | 14.5 | 0.00 | 0.00 | 0.00 | 58 | 1011.0 |
| 20260905193604 | 33 | 283 | 4.8 | 14.5 | 0.00 | 0.00 | 0.00 | 58 | 1011.2 |
| 20260905193104 | 33 | 339 | 4.8 | 11.3 | 0.00 | 0.00 | 0.00 | 57 | 1011.2 |
| 20260905191105 | 33 | 271 | 6.4 | 12.9 | 0.00 | 0.00 | 0.00 | 57 | 1011.3 |
| 20260905190604 | 33 | 203 | 4.8 | 11.3 | 0.00 | 0.00 | 0.00 | 58 | 1011.4 |
| 20260905190104 | 33 | 235 | 4.8 | 11.3 | 0.00 | 0.00 | 0.00 | 57 | 1011.5 |
| 20260905184605 | 32 | 262 | 1.6 | 4.8 | 0.00 | 0.00 | 0.00 | 58 | 1011.7 |
| 20260905184104 | 32 | 276 | 1.6 | 4.8 | 0.00 | 0.00 | 0.00 | 57 | 1011.9 |
| 20260905183605 | 32 | 270 | 3.2 | 4.8 | 0.00 | 0.00 | 0.00 | 57 | 1012.0 |
| 20260905183104 | 32 | 299 | 1.6 | 11.3 | 0.00 | 0.00 | 0.00 | 59 | 1012.0 |
| 20260905181604 | 32 | 212 | 3.2 | 9.7 | 0.00 | 0.00 | 0.00 | 60 | 1012.1 |
| 20260905181105 | 32 | 275 | 3.2 | 9.7 | 0.00 | 0.00 | 0.00 | 58 | 1012.2 |
| 20260905180604 | 32 | 212 | 3.2 | 11.3 | 0.00 | 0.00 | 0.00 | 58 | 1012.2 |
| 20260905180105 | 31 | 298 | 3.2 | 12.9 | 0.00 | 0.00 | 0.00 | 59 | 1012.3 |
| 20260905174605 | 31 | 299 | 4.8 | 14.5 | 0.00 | 0.00 | 0.00 | 58 | 1012.4 |
| 20260905174105 | 31 | 267 | 4.8 | 11.3 | 0.00 | 0.00 | 0.00 | 59 | 1012.5 |
| 20260905173604 | 31 | 225 | 3.2 | 9.7 | 0.00 | 0.00 | 0.00 | 59 | 1012.5 |
| 20260905173104 | 31 | 259 | 1.6 | 9.7 | 0.00 | 0.00 | 0.00 | 59 | 1012.5 |
| 20260905171604 | 31 | 3 | 0.0 | 0.0 | 0.00 | 0.00 | 0.00 | 56 | 1012.7 |
| 20260905171104 | 31 | 3 | 0.0 | 0.0 | 0.00 | 0.00 | 0.00 | 57 | 1012.8 |
| 20260905170604 | 31 | 3 | 0.0 | 0.0 | 0.00 | 0.00 | 0.00 | 57 | 1012.9 |
| 20260905164604 | 31 | 3 | 0.0 | 0.0 | 0.00 | 0.00 | 0.00 | 57 | 1013.0 |
| 20260905164104 | 31 | 3 | 0.0 | 0.0 | 0.00 | 0.00 | 0.00 | 57 | 1013.0 |
| 20260905163604 | 31 | 3 | 0.0 | 0.0 | 0.00 | 0.00 | 0.00 | 58 | 1013.1 |
| 20260905163105 | 30 | 3 | 0.0 | 0.0 | 0.00 | 0.00 | 0.00 | 58 | 1013.2 |
| 20260905161604 | 30 | 3 | 0.0 | 0.0 | 0.00 | 0.00 | 0.00 | 59 | 1013.2 |
| 20260905161104 | 30 | 3 | 0.0 | 0.0 | 0.00 | 0.00 | 0.00 | 59 | 1013.2 |
| 20260905160604 | 30 | 3 | 0.0 | 0.0 | 0.00 | 0.00 | 0.00 | 58 | 1013.1 |
| 20260905154604 | 29 | 3 | 0.0 | 0.0 | 0.00 | 0.00 | 0.00 | 62 | 1013.1 |
| 20260905154104 | 29 | 3 | 0.0 | 0.0 | 0.00 | 0.00 | 0.00 | 61 | 1013.0 |
| 20260905151604 | 28 | 3 | 0.0 | 0.0 | 0.00 | 0.00 | 0.00 | 63 | 1013.5 |
| 20260905151104 | 28 | 3 | 0.0 | 0.0 | 0.00 | 0.00 | 0.00 | 64 | 1013.4 |
| 20260905150604 | 27 | 3 | 0.0 | 0.0 | 0.00 | 0.00 | 0.00 | 65 | 1013.4 |
| 20260905150104 | 27 | 3 | 0.0 | 0.0 | 0.00 | 0.00 | 0.00 | 65 | 1013.5 |
| 20260905144604 | 27 | 3 | 0.0 | 0.0 | 0.00 | 0.00 | 0.00 | 65 | 1013.4 |
| 20260905143604 | 26 | 3 | 0.0 | 0.0 | 0.00 | 0.00 | 0.00 | 68 | 1013.5 |
| 20260905143104 | 26 | 3 | 0.0 | 0.0 | 0.00 | 0.00 | 0.00 | 69 | 1013.5 |
| 20260905141604 | 25 | 3 | 0.0 | 0.0 | 0.00 | 0.00 | 0.00 | 70 | 1013.5 |
| 20260905141103 | 25 | 3 | 0.0 | 0.0 | 0.00 | 0.00 | 0.00 | 71 | 1013.6 |
| 20260905140604 | 25 | 3 | 0.0 | 0.0 | 0.00 | 0.00 | 0.00 | 72 | 1013.7 |
| 20260905134103 | 24 | 3 | 0.0 | 0.0 | 0.00 | 0.00 | 0.00 | 74 | 1013.6 |
| 20260905133604 | 23 | 3 | 0.0 | 0.0 | 0.00 | 0.00 | 0.00 | 74 | 1013.7 |
| 20260905133105 | 23 | 3 | 0.0 | 0.0 | 0.00 | 0.00 | 0.00 | 74 | 1013.6 |
| 20260905131603 | 23 | 3 | 0.0 | 0.0 | 0.00 | 0.00 | 0.00 | 76 | 1013.7 |
| 20260905131103 | 23 | 3 | 0.0 | 0.0 | 0.00 | 0.00 | 0.00 | 77 | 1013.7 |
| 20260905130104 | 23 | 3 | 0.0 | 0.0 | 0.00 | 0.00 | 0.00 | 76 | 1013.7 |
| 20260905124604 | 23 | 3 | 0.0 | 0.0 | 0.00 | 0.00 | 0.00 | 77 | 1013.8 |
| 20260905124104 | 23 | 3 | 0.0 | 0.0 | 0.00 | 0.00 | 0.00 | 77 | 1013.8 |
| 20260905123604 | 23 | 3 | 0.0 | 0.0 | 0.00 | 0.00 | 0.00 | 77 | 1013.8 |
| 20260905123104 | 23 | 3 | 0.0 | 0.0 | 0.00 | 0.00 | 0.00 | 78 | 1013.8 |
| 20260905121604 | 23 | 3 | 0.0 | 0.0 | 0.00 | 0.00 | 0.00 | 78 | 1013.8 |
| 20260905121103 | 23 | 3 | 0.0 | 0.0 | 0.00 | 0.00 | 0.00 | 78 | 1013.7 |
| 20260905120604 | 23 | 3 | 0.0 | 0.0 | 0.00 | 0.00 | 0.00 | 78 | 1013.6 |
| 20260905120104 | 23 | 3 | 0.0 | 0.0 | 0.00 | 0.00 | 0.00 | 78 | 1013.5 |
| 20260905114604 | 23 | 2 | 0.0 | 0.0 | 0.00 | 0.00 | 0.00 | 80 | 1013.4 |
| 20260905113603 | 24 | 3 | 0.0 | 0.0 | 0.00 | 0.00 | 0.00 | 83 | 1013.2 |
| 20260905113104 | 23 | 3 | 0.0 | 0.0 | 0.00 | 0.00 | 0.00 | 82 | 1013.0 |
| 20260905111104 | 23 | 3 | 0.0 | 0.0 | 0.00 | 0.00 | 0.00 | 82 | 1012.2 |
| 20260905110603 | 23 | 3 | 0.0 | 0.0 | 0.00 | 0.00 | 0.00 | 82 | 1012.2 |
| 20260905110104 | 23 | 3 | 0.0 | 0.0 | 0.00 | 0.00 | 0.00 | 82 | 1012.1 |
| 20260905104603 | 23 | 3 | 0.0 | 0.0 | 0.00 | 0.00 | 0.00 | 82 | 1012.0 |
| 20260905104104 | 23 | 3 | 0.0 | 0.0 | 0.00 | 0.00 | 0.00 | 83 | 1012.0 |
| 20260905103603 | 24 | 3 | 0.0 | 0.0 | 0.00 | 0.00 | 0.00 | 83 | 1012.0 |
| 20260905103104 | 24 | 3 | 0.0 | 0.0 | 0.00 | 0.00 | 0.00 | 83 | 1012.1 |
| 20260905101606 | 24 | 3 | 0.0 | 0.0 | 0.00 | 0.00 | 0.00 | 83 | 1011.9 |
| 20260905101106 | 24 | 3 | 0.0 | 0.0 | 0.00 | 0.00 | 0.00 | 83 | 1011.9 |
| 20260905100605 | 24 | 3 | 0.0 | 0.0 | 0.00 | 0.00 | 0.00 | 83 | 1011.9 |
| 20260905100105 | 24 | 3 | 0.0 | 0.0 | 0.00 | 0.00 | 0.00 | 83 | 1011.8 |
| 20260905093605 | 24 | 3 | 0.0 | 0.0 | 0.00 | 0.00 | 0.00 | 83 | 1012.0 |
| 20260905093105 | 24 | 3 | 0.0 | 0.0 | 0.00 | 0.00 | 0.00 | 82 | 1012.0 |
| 20260905091605 | 24 | 3 | 0.0 | 0.0 | 0.00 | 0.00 | 0.00 | 82 | 1012.0 |
| 20260905091105 | 24 | 3 | 0.0 | 0.0 | 0.00 | 0.00 | 0.00 | 83 | 1012.0 |
| 20260905090605 | 24 | 3 | 0.0 | 0.0 | 0.00 | 0.00 | 0.00 | 83 | 1012.0 |
| 20260905090106 | 24 | 3 | 0.0 | 0.0 | 0.00 | 0.00 | 0.00 | 82 | 1012.0 |
| 20260905084105 | 24 | 3 | 0.0 | 0.0 | 0.00 | 0.00 | 0.00 | 83 | 1011.8 |
| 20260905083606 | 24 | 3 | 0.0 | 0.0 | 0.00 | 0.00 | 0.00 | 83 | 1011.8 |
| 20260905083105 | 24 | 3 | 0.0 | 0.0 | 0.00 | 0.00 | 0.00 | 83 | 1011.8 |
| 20260905081605 | 24 | 3 | 0.0 | 0.0 | 0.00 | 0.00 | 0.00 | 83 | 1011.5 |
| 20260905081106 | 24 | 2 | 0.0 | 0.0 | 0.00 | 0.00 | 0.00 | 83 | 1011.5 |
| 20260905080605 | 24 | 297 | 0.0 | 1.6 | 0.00 | 0.00 | 0.00 | 83 | 1011.4 |
| 20260905080105 | 24 | 297 | 0.0 | 1.6 | 0.00 | 0.00 | 0.00 | 83 | 1011.5 |
| 20260905074605 | 25 | 297 | 0.0 | 1.6 | 0.00 | 0.00 | 0.00 | 82 | 1011.4 |
| 20260905074106 | 24 | 297 | 0.0 | 3.2 | 0.00 | 0.00 | 0.00 | 82 | 1011.3 |
| 20260905073605 | 24 | 297 | 0.0 | 3.2 | 0.00 | 0.00 | 0.00 | 82 | 1011.3 |
| 20260905073105 | 24 | 296 | 0.0 | 0.0 | 0.00 | 0.00 | 0.00 | 82 | 1011.2 |
| 20260905071605 | 24 | 296 | 0.0 | 0.0 | 0.00 | 0.00 | 0.00 | 81 | 1011.3 |
| 20260905071105 | 24 | 296 | 0.0 | 0.0 | 0.00 | 0.00 | 0.00 | 81 | 1011.3 |
| 20260905070606 | 24 | 296 | 0.0 | 0.0 | 0.00 | 0.00 | 0.00 | 81 | 1011.4 |
| 20260905064605 | 24 | 296 | 0.0 | 0.0 | 0.00 | 0.00 | 0.00 | 81 | 1011.5 |
| 20260905064105 | 24 | 296 | 0.0 | 0.0 | 0.00 | 0.00 | 0.00 | 81 | 1011.7 |
| 20260905063606 | 24 | 296 | 0.0 | 0.0 | 0.00 | 0.00 | 0.00 | 81 | 1011.8 |
| 20260905063106 | 24 | 296 | 0.0 | 0.0 | 0.00 | 0.00 | 0.00 | 81 | 1011.9 |
| 20260905061105 | 25 | 296 | 0.0 | 0.0 | 0.00 | 0.00 | 0.00 | 82 | 1012.2 |
| 20260905060605 | 25 | 296 | 0.0 | 0.0 | 0.00 | 0.00 | 0.00 | 82 | 1012.2 |
| 20260905060105 | 25 | 296 | 0.0 | 0.0 | 0.00 | 0.00 | 0.00 | 82 | 1012.1 |
| 20260905054605 | 25 | 296 | 0.0 | 0.0 | 0.00 | 0.00 | 0.00 | 82 | 1012.3 |
| 20260905054105 | 25 | 296 | 0.0 | 0.0 | 0.00 | 0.00 | 0.00 | 82 | 1012.4 |
| 20260905051605 | 25 | 296 | 0.0 | 0.0 | 0.00 | 0.00 | 0.00 | 82 | 1012.5 |
| 20260905051106 | 25 | 296 | 0.0 | 0.0 | 0.00 | 0.00 | 0.00 | 82 | 1012.6 |
| 20260905050605 | 25 | 296 | 0.0 | 0.0 | 0.00 | 0.00 | 0.00 | 82 | 1012.5 |
| 20260905050105 | 25 | 296 | 0.0 | 0.0 | 0.00 | 0.00 | 0.00 | 82 | 1012.4 |
| 20260905044605 | 25 | 296 | 0.0 | 0.0 | 0.00 | 0.00 | 0.00 | 82 | 1012.5 |
| 20260905044105 | 25 | 296 | 0.0 | 0.0 | 0.00 | 0.00 | 0.00 | 82 | 1012.5 |
| 20260905043605 | 25 | 296 | 0.0 | 0.0 | 0.00 | 0.00 | 0.00 | 82 | 1012.5 |
| 20260905043105 | 25 | 296 | 0.0 | 0.0 | 0.00 | 0.00 | 0.00 | 82 | 1012.5 |
| 20260905041605 | 25 | 296 | 0.0 | 0.0 | 0.00 | 0.00 | 0.00 | 82 | 1012.6 |
| 20260905041105 | 25 | 296 | 0.0 | 0.0 | 0.00 | 0.00 | 0.00 | 82 | 1012.7 |
| 20260905040605 | 25 | 296 | 0.0 | 0.0 | 0.00 | 0.00 | 0.00 | 82 | 1012.7 |
| 20260905040105 | 25 | 296 | 0.0 | 0.0 | 0.00 | 0.00 | 0.00 | 82 | 1012.7 |
| 20260905034104 | 26 | 296 | 0.0 | 0.0 | 0.00 | 0.00 | 0.00 | 82 | 1012.7 |
| 20260905033605 | 26 | 296 | 0.0 | 0.0 | 0.00 | 0.00 | 0.00 | 82 | 1012.8 |
| 20260905033105 | 26 | 296 | 0.0 | 0.0 | 0.00 | 0.00 | 0.00 | 82 | 1012.8 |
| 20260905031605 | 26 | 296 | 0.0 | 0.0 | 0.00 | 0.00 | 0.00 | 82 | 1012.7 |
| 20260905031106 | 26 | 296 | 0.0 | 0.0 | 0.00 | 0.00 | 0.00 | 82 | 1012.7 |
| 20260905030605 | 26 | 296 | 0.0 | 0.0 | 0.00 | 0.00 | 0.00 | 82 | 1012.8 |
| 20260905030105 | 26 | 296 | 0.0 | 0.0 | 0.00 | 0.00 | 0.00 | 82 | 1012.7 |
| 20260905024105 | 26 | 296 | 0.0 | 0.0 | 0.00 | 0.00 | 0.00 | 82 | 1012.6 |
| 20260905023605 | 26 | 296 | 0.0 | 0.0 | 0.00 | 0.00 | 0.00 | 82 | 1012.5 |
| 20260905023106 | 27 | 296 | 0.0 | 0.0 | 0.00 | 0.00 | 0.00 | 82 | 1012.6 |
| 20260905021605 | 27 | 296 | 0.0 | 0.0 | 0.00 | 0.00 | 0.00 | 81 | 1012.5 |
| 20260905021105 | 27 | 296 | 0.0 | 0.0 | 0.00 | 0.00 | 0.00 | 81 | 1012.5 |
| 20260905020604 | 27 | 296 | 0.0 | 0.0 | 0.00 | 0.00 | 0.00 | 81 | 1012.5 |
| 20260905020105 | 27 | 296 | 0.0 | 0.0 | 0.00 | 0.00 | 0.00 | 81 | 1012.5 |
| 20260905014605 | 27 | 296 | 0.0 | 0.0 | 0.00 | 0.00 | 0.00 | 80 | 1012.3 |
| 20260905014105 | 27 | 296 | 0.0 | 0.0 | 0.00 | 0.00 | 0.00 | 79 | 1012.3 |
| 20260905013605 | 28 | 296 | 0.0 | 0.0 | 0.00 | 0.00 | 0.00 | 79 | 1012.4 |
| 20260905013105 | 28 | 296 | 0.0 | 0.0 | 0.00 | 0.00 | 0.00 | 79 | 1012.4 |
| 20260905011605 | 28 | 296 | 0.0 | 0.0 | 0.00 | 0.00 | 0.00 | 78 | 1012.3 |
| 20260905010605 | 28 | 296 | 0.0 | 0.0 | 0.00 | 0.00 | 0.00 | 77 | 1012.4 |
| 20260905010105 | 29 | 296 | 0.0 | 0.0 | 0.00 | 0.00 | 0.00 | 76 | 1012.4 |
| 20260905004606 | 30 | 296 | 0.0 | 0.0 | 0.00 | 0.00 | 0.00 | 75 | 1012.2 |
| 20260905004104 | 30 | 296 | 0.0 | 0.0 | 0.00 | 0.00 | 0.00 | 73 | 1012.1 |
| 20260905003605 | 30 | 296 | 0.0 | 0.0 | 0.00 | 0.00 | 0.00 | 72 | 1012.2 |
| 20260905003105 | 30 | 296 | 0.0 | 0.0 | 0.00 | 0.00 | 0.00 | 71 | 1012.1 |
| 20260905001104 | 31 | 296 | 0.0 | 0.0 | 0.00 | 0.00 | 0.00 | 68 | 1012.2 |
| 20260905000605 | 31 | 296 | 0.0 | 0.0 | 0.00 | 0.00 | 0.00 | 68 | 1012.2 |
| 20260904234605 | 32 | 296 | 0.0 | 0.0 | 0.00 | 0.00 | 0.00 | 66 | 1012.3 |
| 20260904234105 | 32 | 296 | 0.0 | 0.0 | 0.00 | 0.00 | 0.00 | 64 | 1012.3 |
| 20260904233605 | 32 | 296 | 0.0 | 0.0 | 0.00 | 0.00 | 0.00 | 64 | 1012.3 |
| 20260904233105 | 32 | 296 | 0.0 | 1.6 | 0.00 | 0.00 | 0.00 | 64 | 1012.3 |
| 20260904231605 | 33 | 297 | 3.2 | 4.8 | 0.00 | 0.00 | 0.00 | 58 | 1012.1 |
| 20260904230605 | 33 | 306 | 1.6 | 11.3 | 0.00 | 0.00 | 0.00 | 56 | 1012.1 |
| 20260904230105 | 33 | 294 | 1.6 | 11.3 | 0.00 | 0.00 | 0.00 | 56 | 1012.0 |